QPF
0.00 0.00 0.00 0.00 0.00 0.00 0.00 0.00 0.00 0.00 0.00 0.00 0.00 0.00 0.00 0.00 0.00 0.00 0.00 0.00 0.00 0.00 0.00 0.00 0.00 0.00 0.00 0.00 0.00 0.00 0.00 0.00 0.00 0.00 0.00 0.00 0.00 0.00 0.00 0.00 0.00 0.00 0.00
0.00 0.00 0.00 0.00 0.00 0.00 0.00 0.00 0.00 0.00 0.00 0.00 0.00 0.00 0.00 0.00 0.00 0.00 0.00 0.00 0.00 0.00 0.00 0.00 0.00 0.00 0.00 0.00 0.00 0.00 0.00 0.00 0.00 0.00 0.00 0.00 0.00 0.00 0.00 0.00 0.00 0.00 0.00
0.00 0.00 0.00 0.00 0.00 0.00 0.00 0.00 0.00 0.00 0.00 0.00 0.00 0.00 0.00 0.00 0.00 0.00 0.00 0.00 0.00 0.00 0.00 0.00 0.00 0.00 0.00 0.00 0.00 0.00 0.00 0.00 0.00 0.00 0.00 0.00 0.00 0.00 0.00 0.00 0.00 0.00 0.00
0.00 0.00 0.00 0.00 0.00 0.00 0.00 0.00 0.00 0.00 0.00 0.00 0.00 0.00 0.00 0.00 0.00 0.00 0.00 0.00 0.00 0.00 0.00 0.00 0.00 0.00 0.00 0.00 0.00 0.00 0.00 0.00 0.00 0.00 0.00 0.00 0.00 0.00 0.00 0.00 0.00 0.00 0.00
0.00 0.00 0.00 0.00 0.00 0.00 0.00 0.00 0.00 0.00 0.00 0.00 0.00 0.00 0.00 0.00 0.00 0.00 0.00 0.00 0.00 0.00 0.00 0.00 0.00 0.00 0.00 0.00 0.00 0.00 0.00 0.00 0.00 0.00 0.00 0.00 0.00 0.00 0.00 0.00 0.00 0.00 0.00
0.00 0.00 0.00 0.00 0.00 0.00 0.00 0.00 0.00 0.00 0.00 0.00 0.00 0.00 0.00 0.00 0.00 0.00 0.00 0.00 0.00 0.00 0.00 0.00 0.00 0.00 0.00 0.00 0.00 0.00 0.00 0.00 0.00 0.00 0.00 0.00 0.00 0.00 0.00 0.00 0.00 0.00 0.00
0.00 0.00 0.00 0.00 0.00 0.00 0.00 0.00 0.00 0.00 0.00 0.00 0.00 0.00 0.00 0.00 0.00 0.00 0.00 0.00 0.00 0.00 0.00 0.00 0.00 0.00 0.00 0.00 0.00 0.00 0.00 0.00 0.00 0.00 0.00 0.00 0.00 0.00 0.00 0.00 0.00 0.00 0.00
0.00 0.00 0.00 0.00 0.00 0.00 0.00 0.00 0.00 0.00 0.00 0.00 0.00 0.00 0.00 0.00 0.00 0.00 0.00 0.00 0.00 0.00 0.00 0.00 0.00 0.00 0.00 0.00 0.00 0.00 0.00 0.00 0.00 0.00 0.00 0.00 0.00 0.00 0.00 0.00 0.00 0.00 0.00
0.00 0.00 0.00 0.00 0.00 0.00 0.00 0.00 0.00 0.00 0.00 0.00 0.00 0.00 0.00 0.00 0.00 0.00 0.00 0.00 0.00 0.00 0.00 0.00 0.00 0.00 0.00 0.00 0.00 0.00 0.00 0.00 0.00 0.00 0.00 0.00 0.00 0.00 0.00 0.00 0.00 0.00 0.00
0.00 0.00 0.00 0.00 0.00 0.00 0.00 0.00 0.00 0.00 0.00 0.00 0.00 0.00 0.00 0.00 0.00 0.00 0.00 0.00 0.00 0.00 0.00 0.00 0.00 0.00 0.00 0.00 0.00 0.00 0.00 0.00 0.00 0.00 0.00 0.00 0.00 0.00 0.00 0.00 0.00 0.00 0.00
0.00 0.00 0.00 0.00 0.00 0.00 0.00 0.00 0.00 0.00 0.00 0.00 0.00 0.00 0.00 0.00 0.00 0.00 0.00 0.00 0.00 0.00 0.00 0.00 0.00 0.00 0.00 0.00 0.00 0.00 0.00 0.00 0.00 0.00 0.00 0.00 0.00 0.00 0.00 0.00 0.00 0.00 0.00
0.01 0.01 0.00 0.00 0.00 0.00 0.00 0.00 0.00 0.00 0.00 0.00 0.00 0.00 0.00 0.00 0.00 0.00 0.00 0.00 0.00 0.00 0.00 0.00 0.00 0.00 0.00 0.00 0.00 0.00 0.00 0.00 0.00 0.00 0.00 0.00 0.00 0.00 0.00 0.00 0.00 0.00 0.00
0.02 0.03 0.02 0.01 0.01 0.00 0.00 0.00 0.00 0.00 0.00 0.00 0.00 0.00 0.00 0.00 0.00 0.00 0.00 0.00 0.00 0.00 0.00 0.00 0.00 0.00 0.00 0.00 0.00 0.00 0.00 0.00 0.00 0.00 0.00 0.00 0.00 0.00 0.00 0.00 0.00 0.00 0.00
0.02 0.02 0.01 0.01 0.01 0.00 0.00 0.00 0.00 0.00 0.00 0.00 0.00 0.00 0.00 0.00 0.00 0.00 0.00 0.00 0.00 0.00 0.00 0.00 0.00 0.00 0.00 0.00 0.00 0.00 0.00 0.00 0.00 0.00 0.00 0.00 0.00 0.00 0.00 0.00 0.00 0.00 0.00
0.01 0.01 0.01 0.02 0.01 0.01 0.00 0.00 0.00 0.00 0.00 0.00 0.00 0.00 0.00 0.00 0.00 0.00 0.00 0.00 0.00 0.00 0.00 0.00 0.00 0.00 0.00 0.00 0.00 0.00 0.00 0.00 0.00 0.00 0.00 0.00 0.00 0.00 0.00 0.00 0.00 0.00 0.00
0.01 0.01 0.01 0.01 0.01 0.01 0.00 0.00 0.00 0.00 0.00 0.00 0.00 0.00 0.00 0.00 0.00 0.00 0.00 0.00 0.00 0.00 0.00 0.00 0.00 0.00 0.00 0.00 0.00 0.00 0.00 0.00 0.00 0.00 0.00 0.00 0.00 0.00 0.00 0.00 0.00 0.00 0.00
0.01 0.01 0.02 0.02 0.01 0.00 0.00 0.00 0.00 0.00 0.00 0.00 0.00 0.00 0.00 0.00 0.00 0.00 0.00 0.00 0.00 0.00 0.00 0.00 0.00 0.00 0.00 0.00 0.00 0.00 0.00 0.00 0.00 0.00 0.00 0.00 0.00 0.00 0.00 0.00 0.00 0.00 0.00
0.01 0.02 0.01 0.01 0.01 0.00 0.00 0.00 0.00 0.00 0.00 0.00 0.00 0.00 0.00 0.00 0.00 0.00 0.00 0.00 0.00 0.00 0.00 0.00 0.00 0.00 0.00 0.00 0.00 0.00 0.00 0.00 0.00 0.00 0.00 0.00 0.00 0.00 0.00 0.00 0.00 0.00 0.00
0.02 0.02 0.02 0.01 0.00 0.00 0.00 0.00 0.00 0.00 0.00 0.00 0.00 0.00 0.00 0.00 0.00 0.00 0.00 0.00 0.00 0.00 0.00 0.00 0.00 0.00 0.00 0.00 0.00 0.00 0.00 0.00 0.00 0.00 0.00 0.00 0.00 0.00 0.00 0.00 0.00 0.00 0.00
0.02 0.01 0.00 0.00 0.00 0.00 0.00 0.00 0.00 0.00 0.00 0.00 0.00 0.00 0.00 0.00 0.00 0.00 0.00 0.00 0.00 0.00 0.00 0.00 0.00 0.00 0.00 0.00 0.00 0.00 0.00 0.00 0.00 0.00 0.00 0.00 0.00 0.00 0.00 0.00 0.00 0.00 0.00
0.01 0.00 0.00 0.00 0.00 0.00 0.00 0.00 0.00 0.00 0.00 0.00 0.00 0.00 0.00 0.00 0.00 0.00 0.00 0.00 0.00 0.00 0.00 0.00 0.00 0.00 0.00 0.00 0.00 0.00 0.00 0.00 0.00 0.00 0.00 0.00 0.00 0.00 0.00 0.00 0.00 0.00 0.00
0.00 0.00 0.00 0.00 0.00 0.00 0.00 0.00 0.00 0.00 0.00 0.00 0.00 0.00 0.00 0.00 0.00 0.00 0.00 0.00 0.00 0.00 0.00 0.00 0.00 0.00 0.00 0.00 0.00 0.00 0.00 0.00 0.00 0.00 0.00 0.00 0.00 0.00 0.00 0.00 0.00 0.00 0.00
0.00 0.00 0.00 0.00 0.00 0.00 0.00 0.00 0.00 0.00 0.00 0.00 0.00 0.00 0.00 0.00 0.00 0.00 0.00 0.00 0.00 0.00 0.00 0.00 0.00 0.00 0.00 0.00 0.00 0.00 0.00 0.00 0.00 0.00 0.00 0.00 0.00 0.00 0.00 0.00 0.00 0.00 0.00
0.00 0.00 0.00 0.00 0.00 0.00 0.00 0.00 0.00 0.00 0.00 0.00 0.00 0.00 0.00 0.00 0.00 0.00 0.00 0.00 0.00 0.00 0.00 0.00 0.00 0.00 0.00 0.00 0.00 0.00 0.00 0.00 0.00 0.00 0.00 0.00 0.00 0.00 0.00 0.00 0.00 0.00 0.00
0.00 0.00 0.00 0.00 0.00 0.00 0.00 0.00 0.00 0.00 0.00 0.00 0.00 0.00 0.00 0.00 0.00 0.00 0.00 0.00 0.00 0.00 0.00 0.00 0.00 0.00 0.00 0.00 0.00 0.00 0.00 0.00 0.00 0.00 0.00 0.00 0.00 0.00 0.00 0.00 0.00 0.00 0.00
0.00 0.00 0.00 0.00 0.00 0.00 0.00 0.00 0.00 0.00 0.00 0.00 0.00 0.00 0.00 0.00 0.00 0.00 0.00 0.00 0.00 0.00 0.00 0.00 0.00 0.00 0.00 0.00 0.00 0.00 0.00 0.00 0.00 0.00 0.00 0.00 0.00 0.00 0.00 0.00 0.00 0.00 0.00
MSLP
1016.57 1017.01 1017.24 1017.50 1017.65 1017.93 1018.28 1018.45 1018.63 1018.87 1019.10 1019.21 1019.24 1019.35 1019.56 1019.61 1019.72 1019.68 1019.53 1019.36 1019.36 1019.51 1019.70 1019.76 1019.82 1019.82 1019.77 1019.68 1019.49 1019.50 1019.50 1019.55 1019.42 1019.35 1019.29 1019.15 1019.00 1018.96 1018.84 1018.52 1018.29 1018.07 1017.72
1016.16 1016.65 1017.05 1017.46 1017.77 1017.92 1018.31 1018.52 1018.69 1018.98 1019.29 1019.38 1019.53 1019.58 1019.77 1019.92 1020.06 1020.09 1019.93 1019.81 1019.79 1019.97 1020.04 1020.06 1020.14 1020.19 1020.10 1019.95 1019.73 1019.72 1019.78 1019.80 1019.70 1019.58 1019.48 1019.35 1019.24 1019.17 1019.03 1018.78 1018.51 1018.30 1017.94
1015.88 1016.31 1016.87 1017.50 1017.80 1018.13 1018.37 1018.64 1018.94 1019.21 1019.43 1019.55 1019.74 1019.77 1019.79 1020.05 1020.32 1020.43 1020.37 1020.29 1020.24 1020.24 1020.25 1020.30 1020.35 1020.41 1020.33 1020.20 1019.94 1019.84 1019.93 1019.96 1019.85 1019.79 1019.72 1019.55 1019.43 1019.30 1019.11 1018.88 1018.62 1018.35 1018.07
1015.36 1015.99 1016.63 1017.32 1017.67 1018.08 1018.39 1018.82 1019.22 1019.50 1019.65 1019.71 1019.91 1019.97 1020.00 1020.05 1020.36 1020.52 1020.60 1020.61 1020.58 1020.56 1020.55 1020.62 1020.67 1020.62 1020.49 1020.39 1020.26 1020.02 1020.03 1020.01 1019.95 1019.96 1019.86 1019.71 1019.64 1019.47 1019.22 1019.00 1018.72 1018.40 1018.12
1015.06 1015.74 1016.48 1017.11 1017.46 1017.85 1018.37 1018.81 1019.36 1019.59 1019.94 1019.95 1019.92 1019.95 1020.19 1020.31 1020.37 1020.46 1020.72 1020.82 1020.83 1020.94 1020.97 1020.87 1020.96 1020.94 1020.73 1020.54 1020.43 1020.29 1020.12 1020.01 1019.99 1020.10 1019.98 1019.82 1019.67 1019.44 1019.15 1018.94 1018.69 1018.44 1018.21
1014.88 1015.54 1016.45 1017.03 1017.43 1018.05 1018.59 1018.92 1019.33 1019.77 1020.13 1020.21 1020.08 1020.16 1020.27 1020.39 1020.43 1020.69 1020.72 1020.78 1020.96 1020.99 1021.10 1021.20 1021.31 1021.19 1020.86 1020.72 1020.65 1020.47 1020.16 1020.00 1019.98 1020.03 1020.00 1019.85 1019.64 1019.43 1019.19 1018.90 1018.61 1018.37 1018.05
1014.57 1015.23 1016.37 1017.00 1017.40 1017.91 1018.47 1018.91 1019.44 1019.94 1020.41 1020.33 1020.50 1020.72 1020.62 1020.49 1020.58 1020.66 1020.66 1020.78 1020.95 1021.12 1021.27 1021.42 1021.48 1021.44 1021.23 1020.89 1020.84 1020.54 1020.31 1020.17 1020.07 1019.91 1019.85 1019.69 1019.45 1019.27 1019.05 1018.72 1018.37 1018.08 1017.79
1014.24 1014.99 1015.52 1016.59 1017.25 1017.98 1018.63 1018.91 1019.08 1019.95 1020.38 1020.46 1020.78 1021.15 1021.23 1021.11 1020.86 1020.92 1020.90 1021.11 1021.22 1021.33 1021.45 1021.50 1021.50 1021.42 1021.41 1021.31 1021.02 1020.51 1020.40 1020.25 1020.03 1019.77 1019.57 1019.37 1019.18 1019.00 1018.71 1018.34 1017.97 1017.62 1017.30
1013.81 1014.56 1015.07 1015.83 1016.91 1017.62 1018.33 1018.64 1018.96 1019.39 1020.18 1020.52 1020.54 1020.78 1021.43 1021.51 1021.59 1021.30 1021.28 1021.36 1021.52 1021.62 1021.61 1021.66 1021.56 1021.49 1021.35 1021.20 1020.94 1020.72 1020.33 1020.17 1019.98 1019.64 1019.33 1019.08 1018.88 1018.62 1018.26 1017.88 1017.51 1017.16 1016.82
1013.42 1014.18 1014.83 1015.46 1016.40 1017.30 1017.99 1018.27 1018.67 1019.12 1019.63 1020.47 1020.78 1020.76 1020.87 1021.16 1021.77 1022.00 1021.76 1021.72 1021.66 1021.62 1021.65 1021.62 1021.54 1021.39 1021.28 1021.13 1020.84 1020.62 1020.32 1020.04 1019.70 1019.39 1019.10 1018.86 1018.55 1018.32 1017.92 1017.51 1017.09 1016.64 1016.39
1013.07 1013.58 1014.60 1015.19 1016.25 1016.87 1017.78 1018.12 1018.50 1019.03 1019.39 1020.15 1020.58 1021.04 1021.32 1021.46 1021.64 1022.12 1022.39 1022.09 1021.84 1021.58 1021.49 1021.49 1021.43 1021.50 1021.35 1021.21 1020.97 1020.73 1020.29 1020.03 1019.71 1019.34 1018.94 1018.57 1018.22 1017.89 1017.48 1017.02 1016.60 1016.19 1016.07
1013.40 1013.76 1014.30 1015.01 1015.95 1016.58 1017.26 1018.11 1018.51 1018.97 1019.34 1019.74 1020.28 1020.65 1021.09 1021.55 1021.90 1022.16 1022.61 1022.68 1022.57 1021.94 1021.61 1021.41 1021.42 1021.60 1021.53 1021.44 1021.16 1020.87 1020.55 1020.18 1019.78 1019.35 1018.81 1018.26 1017.81 1017.41 1017.00 1016.64 1016.27 1016.09 1015.77
1013.32 1013.82 1013.92 1014.92 1015.92 1016.61 1017.39 1018.01 1018.63 1019.05 1019.39 1019.75 1020.31 1020.84 1021.06 1021.30 1021.54 1021.99 1022.48 1022.77 1022.84 1022.30 1021.88 1021.52 1021.48 1021.55 1021.34 1021.40 1021.24 1020.78 1020.52 1020.21 1019.75 1019.21 1018.59 1017.97 1017.53 1017.25 1016.87 1016.52 1016.28 1015.93 1015.42
1012.60 1013.53 1014.35 1014.99 1016.04 1016.45 1017.25 1017.92 1018.64 1019.11 1019.41 1019.93 1020.22 1020.66 1021.10 1021.33 1021.47 1021.79 1022.27 1022.83 1023.03 1022.81 1022.32 1021.83 1021.56 1021.50 1021.48 1021.28 1021.04 1020.63 1020.48 1019.97 1019.48 1018.94 1018.37 1017.89 1017.49 1016.96 1016.55 1016.26 1015.95 1015.48 1014.97
1012.39 1013.28 1014.12 1014.94 1016.17 1016.74 1017.29 1017.91 1018.44 1019.11 1019.49 1020.19 1020.14 1020.53 1021.00 1021.31 1021.45 1021.69 1022.03 1022.40 1022.90 1023.31 1022.83 1022.10 1022.02 1021.36 1021.30 1021.19 1020.93 1020.48 1020.18 1019.74 1019.11 1018.51 1018.02 1017.54 1016.98 1016.50 1016.13 1015.81 1015.21 1014.72 1014.56
1012.24 1013.09 1013.89 1014.70 1015.98 1016.70 1017.66 1017.77 1018.29 1019.14 1019.15 1020.28 1020.13 1020.47 1020.91 1021.29 1021.55 1021.78 1022.07 1022.32 1022.60 1022.91 1022.96 1022.16 1021.86 1021.39 1021.16 1020.83 1020.55 1020.16 1019.84 1019.27 1018.87 1018.24 1017.63 1017.09 1016.57 1016.08 1015.52 1015.02 1014.62 1014.17 1013.76
1011.97 1012.88 1013.62 1014.75 1015.90 1016.87 1017.51 1018.14 1018.24 1019.30 1019.14 1020.13 1020.07 1020.41 1020.79 1021.08 1021.47 1021.77 1021.86 1022.06 1022.31 1022.51 1022.47 1021.88 1021.51 1021.15 1020.96 1020.63 1020.23 1019.77 1019.32 1018.92 1018.43 1017.78 1017.18 1016.55 1015.98 1015.38 1014.99 1014.48 1013.99 1013.55 1013.11
1011.95 1012.77 1013.53 1014.77 1015.81 1016.84 1017.39 1018.05 1018.49 1019.23 1019.10 1019.97 1019.97 1020.36 1020.60 1020.89 1021.27 1021.53 1021.67 1021.88 1022.01 1021.86 1022.10 1021.70 1021.23 1020.94 1020.63 1020.19 1019.88 1019.42 1018.82 1018.20 1017.76 1017.23 1016.63 1015.89 1015.35 1014.86 1014.32 1013.89 1013.38 1012.78 1012.38
1011.97 1012.87 1013.66 1014.73 1015.87 1016.91 1017.54 1017.98 1018.60 1018.94 1019.27 1019.70 1019.96 1020.27 1020.40 1020.86 1021.20 1021.32 1021.38 1021.56 1021.61 1021.35 1021.34 1021.24 1020.78 1020.43 1020.06 1019.68 1019.31 1018.83 1018.38 1017.64 1017.11 1016.47 1015.77 1015.29 1014.59 1014.10 1013.71 1013.18 1012.62 1012.17 1011.66
1012.29 1013.40 1014.55 1015.81 1016.78 1017.78 1018.42 1018.87 1018.77 1019.18 1019.38 1019.70 1019.96 1020.19 1020.45 1020.72 1020.90 1021.00 1021.03 1021.02 1020.98 1021.07 1020.88 1020.74 1020.41 1020.10 1019.77 1019.18 1018.91 1018.45 1017.58 1017.06 1016.41 1015.79 1015.05 1014.66 1013.86 1013.58 1013.10 1012.59 1012.05 1011.48 1011.02
1013.37 1014.57 1015.93 1016.79 1018.10 1017.75 1018.56 1019.13 1019.40 1019.51 1019.63 1019.97 1020.23 1020.19 1020.32 1020.47 1020.49 1020.36 1020.30 1020.41 1020.47 1020.42 1020.22 1020.19 1020.08 1019.71 1019.27 1018.76 1018.50 1017.89 1017.29 1016.35 1015.65 1015.16 1014.34 1014.15 1013.64 1013.37 1012.47 1011.93 1011.38 1010.79 1010.30
1014.47 1015.64 1016.63 1017.98 1018.27 1018.62 1018.66 1019.16 1019.53 1019.98 1019.93 1020.28 1020.50 1020.35 1020.32 1020.29 1020.13 1020.08 1019.90 1019.78 1019.68 1019.56 1019.61 1019.70 1019.64 1019.30 1018.70 1018.35 1017.86 1017.40 1016.72 1016.11 1014.91 1014.10 1014.01 1013.37 1012.95 1012.32 1011.56 1011.10 1010.46 1009.72 1009.02
1015.50 1016.74 1017.64 1017.37 1018.98 1019.09 1019.26 1019.17 1020.02 1020.12 1020.26 1020.56 1020.59 1020.53 1020.30 1020.27 1020.08 1019.90 1019.75 1019.51 1019.32 1019.16 1018.94 1018.72 1018.70 1018.57 1018.06 1017.65 1017.14 1016.59 1016.12 1015.55 1014.81 1013.88 1013.58 1012.39 1012.24 1011.28 1010.51 1009.92 1009.24 1008.58 1007.88
1016.69 1017.56 1017.94 1018.26 1019.13 1019.31 1019.48 1019.67 1019.99 1020.20 1020.44 1020.67 1020.64 1020.36 1020.21 1020.22 1019.92 1019.52 1019.30 1019.09 1018.92 1018.79 1018.65 1018.32 1017.95 1017.56 1017.09 1016.60 1016.26 1015.74 1015.32 1014.81 1014.10 1013.56 1013.30 1011.85 1011.16 1010.33 1009.62 1009.01 1008.09 1007.41 1006.83
1017.27 1017.99 1019.04 1018.92 1018.93 1019.34 1019.52 1019.85 1020.10 1020.29 1020.45 1020.60 1020.34 1020.18 1020.23 1019.93 1019.67 1019.05 1018.64 1018.79 1018.67 1018.36 1017.97 1017.38 1016.95 1016.60 1016.21 1015.76 1015.36 1015.16 1015.01 1014.79 1013.57 1012.83 1012.46 1011.74 1010.30 1009.42 1008.77 1007.83 1007.03 1006.48 1005.88
1017.98 1018.45 1018.79 1018.75 1019.01 1019.53 1019.70 1019.82 1019.98 1020.21 1020.43 1020.26 1020.23 1020.24 1020.01 1019.62 1019.09 1018.65 1018.36 1018.42 1018.33 1018.05 1017.52 1017.24 1016.89 1016.41 1015.98 1015.62 1015.04 1015.00 1014.85 1014.63 1013.85 1012.20 1011.24 1011.20 1010.15 1010.00 1007.69 1006.59 1006.13 1005.76 1005.19
Thickness
5681 5677 5675 5673 5672 5668 5666 5664 5662 5659 5656 5654 5652 5651 5647 5646 5643 5641 5639 5638 5638 5636 5633 5632 5630 5628 5627 5627 5629 5628 5627 5625 5626 5625 5624 5625 5625 5624 5625 5628 5629 5631 5633
5679 5675 5671 5668 5666 5664 5659 5657 5655 5652 5649 5647 5644 5642 5639 5636 5633 5631 5630 5629 5627 5625 5624 5623 5620 5618 5618 5619 5620 5620 5618 5617 5617 5616 5615 5616 5616 5615 5615 5617 5619 5621 5623
5676 5672 5667 5663 5660 5656 5653 5650 5647 5645 5642 5639 5636 5634 5632 5628 5624 5622 5620 5619 5618 5616 5615 5613 5611 5610 5610 5610 5612 5611 5609 5608 5608 5606 5605 5606 5606 5606 5606 5607 5609 5611 5614
5673 5668 5664 5659 5655 5651 5648 5644 5640 5636 5633 5631 5628 5626 5623 5621 5617 5615 5612 5610 5609 5608 5605 5603 5602 5601 5601 5601 5601 5602 5600 5599 5598 5596 5595 5595 5595 5595 5596 5597 5598 5600 5602
5669 5664 5659 5654 5651 5648 5642 5638 5632 5629 5624 5622 5621 5619 5615 5613 5610 5607 5604 5602 5600 5597 5596 5593 5591 5590 5590 5590 5590 5590 5590 5589 5588 5585 5584 5584 5584 5584 5585 5586 5587 5588 5589
5663 5659 5652 5647 5645 5639 5634 5631 5625 5620 5616 5613 5614 5611 5607 5605 5602 5598 5597 5594 5592 5589 5586 5584 5581 5580 5579 5579 5577 5577 5578 5578 5577 5575 5573 5573 5573 5572 5572 5573 5575 5576 5577
5658 5654 5645 5641 5638 5633 5628 5623 5617 5613 5607 5605 5602 5599 5597 5596 5594 5591 5589 5586 5583 5580 5576 5572 5570 5568 5568 5567 5565 5565 5565 5564 5563 5563 5561 5561 5562 5561 5561 5562 5563 5564 5565
5652 5648 5643 5636 5631 5624 5617 5614 5613 5605 5600 5596 5592 5587 5585 5584 5584 5581 5580 5576 5572 5569 5565 5561 5559 5558 5556 5554 5553 5553 5552 5550 5550 5550 5549 5548 5548 5548 5549 5550 5551 5552 5552
5646 5642 5640 5634 5626 5620 5612 5608 5605 5602 5594 5589 5586 5583 5573 5575 5567 5569 5567 5563 5560 5557 5554 5550 5548 5546 5544 5543 5542 5540 5540 5538 5537 5537 5537 5536 5535 5536 5536 5537 5537 5538 5538
5643 5637 5634 5629 5622 5614 5608 5604 5600 5595 5590 5582 5576 5574 5570 5566 5560 5559 5554 5551 5548 5546 5542 5539 5537 5536 5534 5532 5530 5527 5526 5524 5523 5523 5523 5522 5522 5521 5521 5521 5521 5523 5524
5638 5634 5626 5622 5615 5610 5602 5599 5592 5587 5584 5576 5570 5563 5558 5553 5549 5543 5541 5538 5538 5535 5533 5529 5526 5522 5520 5518 5515 5513 5511 5510 5508 5508 5507 5507 5506 5505 5505 5506 5506 5506 5505
5624 5623 5619 5614 5607 5603 5597 5589 5585 5579 5575 5570 5564 5559 5552 5546 5540 5534 5528 5523 5520 5522 5518 5514 5510 5506 5503 5500 5497 5495 5494 5493 5493 5492 5491 5490 5489 5488 5488 5487 5485 5483 5483
5615 5613 5613 5605 5598 5593 5587 5581 5575 5570 5566 5562 5555 5548 5543 5539 5533 5526 5520 5514 5510 5511 5508 5504 5499 5493 5489 5486 5482 5480 5478 5476 5476 5476 5476 5476 5475 5473 5472 5470 5468 5467 5467
5611 5604 5600 5595 5586 5584 5577 5572 5566 5560 5556 5550 5546 5539 5533 5528 5524 5518 5510 5502 5496 5493 5493 5491 5486 5482 5477 5473 5468 5465 5463 5460 5459 5458 5458 5456 5455 5454 5453 5451 5449 5448 5447
5603 5597 5592 5586 5576 5571 5567 5562 5558 5551 5546 5539 5537 5531 5524 5517 5512 5506 5499 5492 5483 5477 5476 5476 5470 5469 5463 5457 5453 5451 5448 5445 5443 5441 5439 5437 5436 5435 5433 5430 5430 5428 5423
5594 5588 5584 5579 5568 5562 5554 5554 5550 5541 5540 5528 5527 5521 5513 5506 5499 5493 5486 5479 5472 5464 5459 5460 5456 5454 5449 5444 5439 5436 5433 5430 5426 5424 5421 5419 5417 5414 5412 5410 5405 5402 5397
5586 5581 5577 5569 5560 5553 5548 5543 5540 5529 5530 5519 5517 5511 5503 5496 5488 5480 5474 5467 5460 5452 5448 5448 5443 5438 5433 5428 5424 5421 5417 5413 5410 5404 5400 5398 5395 5391 5386 5382 5377 5371 5366
5577 5573 5569 5560 5552 5544 5539 5534 5528 5522 5520 5510 5506 5499 5493 5487 5477 5469 5462 5455 5449 5443 5435 5433 5428 5423 5418 5413 5408 5404 5401 5397 5392 5385 5379 5376 5370 5363 5356 5351 5345 5343 5341
5568 5563 5559 5552 5543 5534 5526 5525 5520 5514 5508 5501 5495 5489 5483 5473 5464 5457 5451 5443 5436 5431 5423 5417 5416 5409 5404 5397 5393 5388 5384 5380 5370 5359 5352 5348 5342 5335 5327 5323 5324 5325 5327
5556 5550 5543 5534 5520 5516 5513 5506 5505 5500 5496 5490 5483 5476 5468 5461 5453 5446 5439 5432 5425 5417 5410 5404 5400 5393 5386 5382 5374 5369 5369 5356 5349 5334 5328 5325 5317 5312 5308 5307 5308 5310 5311
5539 5533 5523 5519 5506 5509 5500 5493 5490 5487 5483 5476 5469 5464 5458 5450 5445 5438 5431 5422 5414 5406 5398 5389 5385 5377 5372 5366 5355 5348 5340 5336 5327 5310 5309 5307 5300 5297 5295 5295 5295 5295 5296
5522 5516 5506 5499 5496 5494 5492 5485 5480 5472 5469 5462 5454 5450 5444 5438 5432 5425 5419 5412 5404 5393 5380 5371 5363 5361 5354 5343 5335 5325 5317 5309 5311 5297 5293 5297 5289 5292 5289 5287 5285 5286 5287
5508 5500 5490 5491 5483 5480 5478 5476 5466 5461 5455 5447 5441 5435 5430 5423 5417 5410 5403 5398 5390 5381 5371 5363 5353 5340 5334 5321 5313 5303 5295 5294 5292 5287 5282 5294 5281 5286 5282 5280 5278 5277 5279
5490 5486 5480 5478 5471 5469 5465 5462 5455 5448 5442 5434 5428 5424 5417 5408 5403 5399 5393 5385 5377 5366 5357 5344 5332 5322 5311 5302 5293 5292 5288 5288 5285 5277 5263 5281 5276 5277 5275 5273 5270 5268 5269
5478 5472 5463 5466 5465 5459 5453 5448 5443 5436 5429 5422 5417 5411 5402 5397 5392 5390 5383 5372 5361 5348 5337 5325 5315 5304 5295 5289 5286 5284 5276 5271 5275 5271 5253 5259 5265 5265 5264 5268 5262 5259 5260
5467 5464 5461 5460 5457 5448 5445 5440 5433 5425 5417 5411 5403 5394 5390 5386 5382 5376 5368 5357 5344 5332 5320 5306 5293 5287 5285 5281 5277 5270 5263 5257 5253 5260 5249 5243 5247 5237 5256 5262 5259 5254 5253